Time,TemperatureF,DewpointF,PressureIn,WindDirection,WindDirectionDegrees,WindSpeedMPH,WindSpeedGustMPH,Humidity,HourlyPrecipIn,Conditions,Clouds,dailyrainin,SoftwareType,DateUTC
2013-03-25 00:00:00,60.0,0.0,29.96,NNE,25,2.0,3.0,19,-99.99,,,-99.99,,2013-03-25 07:00:00,
2013-03-25 00:08:00,60.0,0.0,29.96,North,7,1.0,5.0,18,-99.99,,,-99.99,,2013-03-25 07:08:00,
2013-03-25 00:16:00,59.0,0.0,29.96,North,361,0.0,3.0,19,-99.99,,,-99.99,,2013-03-25 07:16:00,
2013-03-25 00:24:00,59.0,0.0,29.96,NE,51,2.0,3.0,20,-99.99,,,-99.99,,2013-03-25 07:24:00,
2013-03-25 00:32:00,59.0,0.0,29.96,North,2,2.0,3.0,19,-99.99,,,-99.99,,2013-03-25 07:32:00,
2013-03-25 00:40:00,58.0,0.0,29.96,North,3,2.0,5.0,17,-99.99,,,-99.99,,2013-03-25 07:40:00,
2013-03-25 00:48:00,58.0,0.0,29.96,North,361,1.0,5.0,17,-99.99,,,-99.99,,2013-03-25 07:48:00,
2013-03-25 00:56:00,57.0,0.0,29.96,NNE,26,2.0,3.0,19,-99.99,,,-99.99,,2013-03-25 07:56:00,
2013-03-25 01:04:00,58.0,0.0,29.96,NNE,28,2.0,5.0,21,-99.99,,,-99.99,,2013-03-25 08:04:00,
2013-03-25 01:12:00,58.0,0.0,29.95,North,6,2.0,6.0,18,-99.99,,,-99.99,,2013-03-25 08:12:00,
2013-03-25 01:20:00,57.0,0.0,29.95,North,361,5.0,6.0,18,-99.99,,,-99.99,,2013-03-25 08:20:00,
2013-03-25 01:28:00,57.0,0.0,29.95,NNE,19,2.0,6.0,19,-99.99,,,-99.99,,2013-03-25 08:28:00,
2013-03-25 01:36:00,57.0,0.0,29.95,North,0,3.0,5.0,19,-99.99,,,-99.99,,2013-03-25 08:36:00,
2013-03-25 01:44:00,57.0,0.0,29.95,NE,39,3.0,5.0,19,-99.99,,,-99.99,,2013-03-25 08:44:00,
2013-03-25 01:52:00,58.0,0.0,29.95,NNE,28,3.0,7.0,20,-99.99,,,-99.99,,2013-03-25 08:52:00,
2013-03-25 02:00:00,58.0,0.0,29.95,North,361,3.0,7.0,19,-99.99,,,-99.99,,2013-03-25 09:00:00,
2013-03-25 02:08:00,58.0,0.0,29.95,North,361,6.0,7.0,21,-99.99,,,-99.99,,2013-03-25 09:08:00,
2013-03-25 02:16:00,59.0,0.0,29.95,North,5,3.0,7.0,20,-99.99,,,-99.99,,2013-03-25 09:16:00,
2013-03-25 02:24:00,59.0,0.0,29.95,North,0,3.0,6.0,22,-99.99,,,-99.99,,2013-03-25 09:24:00,
2013-03-25 02:32:00,59.0,0.0,29.95,North,361,3.0,5.0,24,-99.99,,,-99.99,,2013-03-25 09:32:00,
2013-03-25 02:40:00,60.0,0.0,29.94,North,3,2.0,5.0,21,-99.99,,,-99.99,,2013-03-25 09:40:00,
2013-03-25 02:48:00,60.0,0.0,29.94,North,3,2.0,3.0,24,-99.99,,,-99.99,,2013-03-25 09:48:00,
2013-03-25 02:56:00,59.0,0.0,29.94,NNE,26,0.0,3.0,21,-99.99,,,-99.99,,2013-03-25 09:56:00,
2013-03-25 03:04:00,60.0,0.0,29.94,North,3,2.0,5.0,22,-99.99,,,-99.99,,2013-03-25 10:04:00,
2013-03-25 03:12:00,59.0,0.0,29.94,NE,55,2.0,5.0,23,-99.99,,,-99.99,,2013-03-25 10:12:00,
2013-03-25 03:20:00,58.0,0.0,29.94,NE,41,0.0,2.0,23,-99.99,,,-99.99,,2013-03-25 10:20:00,
2013-03-25 03:28:00,58.0,0.0,29.95,NE,50,2.0,2.0,24,-99.99,,,-99.99,,2013-03-25 10:28:00,
2013-03-25 03:36:00,58.0,0.0,29.95,NE,48,3.0,3.0,23,-99.99,,,-99.99,,2013-03-25 10:36:00,
2013-03-25 03:44:00,58.0,0.0,29.95,NE,50,0.0,3.0,23,-99.99,,,-99.99,,2013-03-25 10:44:00,
2013-03-25 03:52:00,58.0,0.0,29.95,NNE,12,0.0,0.0,24,-99.99,,,-99.99,,2013-03-25 10:52:00,
2013-03-25 04:00:00,58.0,0.0,29.95,North,0,1.0,5.0,24,-99.99,,,-99.99,,2013-03-25 11:00:00,
2013-03-25 04:08:00,58.0,0.0,29.95,North,361,2.0,6.0,23,-99.99,,,-99.99,,2013-03-25 11:08:00,
2013-03-25 04:16:00,57.0,0.0,29.95,North,0,5.0,6.0,24,-99.99,,,-99.99,,2013-03-25 11:16:00,
2013-03-25 04:24:00,56.0,0.0,29.94,North,361,6.0,7.0,23,-99.99,,,-99.99,,2013-03-25 11:24:00,
2013-03-25 04:32:00,55.0,0.0,29.94,North,361,6.0,7.0,24,-99.99,,,-99.99,,2013-03-25 11:32:00,
2013-03-25 04:40:00,55.0,0.0,29.94,North,361,5.0,7.0,25,-99.99,,,-99.99,,2013-03-25 11:40:00,
2013-03-25 04:48:00,56.0,0.0,29.95,North,361,3.0,6.0,24,-99.99,,,-99.99,,2013-03-25 11:48:00,
2013-03-25 04:56:00,55.0,0.0,29.95,North,354,6.0,6.0,25,-99.99,,,-99.99,,2013-03-25 11:56:00,
2013-03-25 05:04:00,55.0,0.0,29.95,North,361,3.0,6.0,23,-99.99,,,-99.99,,2013-03-25 12:04:00,
2013-03-25 05:12:00,56.0,0.0,29.95,North,361,3.0,5.0,25,-99.99,,,-99.99,,2013-03-25 12:12:00,
2013-03-25 05:20:00,56.0,0.0,29.95,North,361,5.0,5.0,24,-99.99,,,-99.99,,2013-03-25 12:20:00,
2013-03-25 05:28:00,56.0,0.0,29.96,North,1,2.0,5.0,26,-99.99,,,-99.99,,2013-03-25 12:28:00,
2013-03-25 05:36:00,56.0,0.0,29.96,NE,38,2.0,3.0,25,-99.99,,,-99.99,,2013-03-25 12:36:00,
2013-03-25 05:44:00,56.0,0.0,29.96,NNE,24,1.0,2.0,24,-99.99,,,-99.99,,2013-03-25 12:44:00,
2013-03-25 05:52:00,57.0,0.0,29.96,NNW,335,3.0,3.0,25,-99.99,,,-99.99,,2013-03-25 12:52:00,
2013-03-25 06:00:00,56.0,0.0,29.96,NNW,327,1.0,3.0,25,-99.99,,,-99.99,,2013-03-25 13:00:00,
2013-03-25 06:08:00,57.0,0.0,29.96,NNW,347,3.0,3.0,23,-99.99,,,-99.99,,2013-03-25 13:08:00,
2013-03-25 06:16:00,56.0,0.0,29.96,North,1,1.0,3.0,24,-99.99,,,-99.99,,2013-03-25 13:16:00,
2013-03-25 06:24:00,56.0,0.0,29.96,North,0,0.0,2.0,24,-99.99,,,-99.99,,2013-03-25 13:24:00,
2013-03-25 06:32:00,57.0,0.0,29.96,North,359,0.0,1.0,24,-99.99,,,-99.99,,2013-03-25 13:32:00,
2013-03-25 06:40:00,57.0,0.0,29.96,WNW,293,0.0,1.0,24,-99.99,,,-99.99,,2013-03-25 13:40:00,
2013-03-25 06:48:00,57.0,0.0,29.96,NNW,327,0.0,2.0,24,-99.99,,,-99.99,,2013-03-25 13:48:00,
2013-03-25 06:56:00,57.0,0.0,29.96,NNW,328,0.0,0.0,26,-99.99,,,-99.99,,2013-03-25 13:56:00,
2013-03-25 07:04:00,57.0,0.0,29.97,NW,320,0.0,1.0,24,-99.99,,,-99.99,,2013-03-25 14:04:00,
2013-03-25 07:12:00,57.0,0.0,29.97,NW,316,0.0,0.0,24,-99.99,,,-99.99,,2013-03-25 14:12:00,
2013-03-25 07:20:00,58.0,0.0,29.97,South,191,2.0,3.0,27,-99.99,,,-99.99,,2013-03-25 14:20:00,
2013-03-25 07:40:00,56.0,0.0,29.98,WSW,239,2.0,3.0,27,-99.99,,,-99.99,,2013-03-25 14:40:00,
2013-03-25 07:48:00,56.0,0.0,29.98,SW,226,2.0,3.0,28,-99.99,,,-99.99,,2013-03-25 14:48:00,
2013-03-25 07:56:00,56.0,0.0,29.98,South,184,3.0,3.0,29,-99.99,,,-99.99,,2013-03-25 14:56:00,
2013-03-25 08:04:00,56.0,0.0,29.98,SSW,196,5.0,5.0,30,-99.99,,,-99.99,,2013-03-25 15:04:00,
2013-03-25 08:12:00,56.0,0.0,29.98,SSW,196,3.0,5.0,28,-99.99,,,-99.99,,2013-03-25 15:12:00,
2013-03-25 08:20:00,56.0,0.0,29.99,South,178,5.0,5.0,27,-99.99,,,-99.99,,2013-03-25 15:20:00,
2013-03-25 08:28:00,56.0,0.0,29.99,South,191,3.0,6.0,28,-99.99,,,-99.99,,2013-03-25 15:28:00,
2013-03-25 08:36:00,56.0,0.0,29.99,South,180,3.0,5.0,28,-99.99,,,-99.99,,2013-03-25 15:36:00,
2013-03-25 08:44:00,56.0,0.0,29.99,SSW,208,3.0,5.0,29,-99.99,,,-99.99,,2013-03-25 15:44:00,
2013-03-25 08:52:00,57.0,0.0,29.99,SSW,203,3.0,5.0,31,-99.99,,,-99.99,,2013-03-25 15:52:00,
2013-03-25 09:00:00,57.0,0.0,30.00,SSW,197,2.0,5.0,29,-99.99,,,-99.99,,2013-03-25 16:00:00,
2013-03-25 09:08:00,58.0,0.0,30.00,SSW,210,2.0,5.0,29,-99.99,,,-99.99,,2013-03-25 16:08:00,
2013-03-25 09:16:00,58.0,0.0,30.00,SSW,200,1.0,3.0,31,-99.99,,,-99.99,,2013-03-25 16:16:00,
2013-03-25 09:24:00,58.0,0.0,30.00,SSE,160,1.0,3.0,31,-99.99,,,-99.99,,2013-03-25 16:24:00,
2013-03-25 09:32:00,60.0,0.0,30.00,SSE,165,0.0,2.0,27,-99.99,,,-99.99,,2013-03-25 16:32:00,
2013-03-25 09:40:00,61.0,0.0,30.00,SE,140,2.0,5.0,27,-99.99,,,-99.99,,2013-03-25 16:40:00,
2013-03-25 09:48:00,61.0,0.0,30.01,SSW,205,5.0,6.0,26,-99.99,,,-99.99,,2013-03-25 16:48:00,
2013-03-25 09:56:00,60.0,0.0,30.01,WSW,250,3.0,6.0,26,-99.99,,,-99.99,,2013-03-25 16:56:00,
2013-03-25 10:04:00,61.0,0.0,30.01,SSW,197,7.0,8.0,27,-99.99,,,-99.99,,2013-03-25 17:04:00,
2013-03-25 10:12:00,61.0,0.0,30.01,SSW,195,5.0,8.0,26,-99.99,,,-99.99,,2013-03-25 17:12:00,
2013-03-25 10:17:00,60.0,0.0,30.01,SSW,204,3.0,9.0,26,-99.99,,,-99.99,,2013-03-25 17:17:00,
2013-03-25 10:24:00,61.0,0.0,30.01,SSW,211,8.0,9.0,26,-99.99,,,-99.99,,2013-03-25 17:24:00,
2013-03-25 10:32:00,62.0,0.0,30.01,SW,228,3.0,8.0,24,-99.99,,,-99.99,,2013-03-25 17:32:00,
2013-03-25 10:40:00,63.0,0.0,30.01,SSW,198,5.0,7.0,24,-99.99,,,-99.99,,2013-03-25 17:40:00,
2013-03-25 10:48:00,64.0,0.0,30.01,SSE,160,5.0,7.0,22,-99.99,,,-99.99,,2013-03-25 17:48:00,
2013-03-25 10:56:00,64.0,0.0,30.01,South,190,6.0,7.0,22,-99.99,,,-99.99,,2013-03-25 17:56:00,
2013-03-25 11:04:00,64.0,0.0,30.01,NW,313,0.0,7.0,21,-99.99,,,-99.99,,2013-03-25 18:04:00,
2013-03-25 11:12:00,64.0,0.0,30.00,SSW,198,5.0,5.0,22,-99.99,,,-99.99,,2013-03-25 18:12:00,
2013-03-25 11:20:00,64.0,0.0,30.00,WNW,289,1.0,7.0,22,-99.99,,,-99.99,,2013-03-25 18:20:00,
2013-03-25 11:28:00,65.0,0.0,30.00,SSW,193,5.0,9.0,21,-99.99,,,-99.99,,2013-03-25 18:28:00,
2013-03-25 11:36:00,65.0,0.0,30.00,SSW,211,3.0,10.0,22,-99.99,,,-99.99,,2013-03-25 18:36:00,
2013-03-25 11:44:00,66.0,0.0,29.99,SSW,206,7.0,8.0,21,-99.99,,,-99.99,,2013-03-25 18:44:00,
2013-03-25 11:52:00,67.0,0.0,29.99,SE,146,1.0,10.0,19,-99.99,,,-99.99,,2013-03-25 18:52:00,
2013-03-25 12:00:00,67.0,0.0,29.99,South,169,2.0,12.0,20,-99.99,,,-99.99,,2013-03-25 19:00:00,
2013-03-25 12:08:00,69.0,0.0,29.98,SSE,161,5.0,9.0,18,-99.99,,,-99.99,,2013-03-25 19:08:00,
2013-03-25 12:16:00,70.0,0.0,29.98,SE,141,2.0,12.0,18,-99.99,,,-99.99,,2013-03-25 19:16:00,
2013-03-25 12:24:00,71.0,0.0,29.98,South,190,7.0,12.0,17,-99.99,,,-99.99,,2013-03-25 19:24:00,
2013-03-25 12:32:00,71.0,0.0,29.98,South,185,7.0,13.0,18,-99.99,,,-99.99,,2013-03-25 19:32:00,
2013-03-25 12:40:00,70.0,0.0,29.97,SSE,162,12.0,15.0,19,-99.99,,,-99.99,,2013-03-25 19:40:00,
2013-03-25 12:48:00,71.0,0.0,29.97,SSE,165,9.0,14.0,19,-99.99,,,-99.99,,2013-03-25 19:48:00,
2013-03-25 12:56:00,72.0,0.0,29.97,South,190,2.0,12.0,19,-99.99,,,-99.99,,2013-03-25 19:56:00,
2013-03-25 13:04:00,72.0,0.0,29.97,SE,136,6.0,12.0,21,-99.99,,,-99.99,,2013-03-25 20:04:00,
2013-03-25 13:12:00,71.0,0.0,29.96,SSE,167,5.0,12.0,20,-99.99,,,-99.99,,2013-03-25 20:12:00,
2013-03-25 13:20:00,70.0,0.0,29.96,South,181,12.0,15.0,21,-99.99,,,-99.99,,2013-03-25 20:20:00,
2013-03-25 13:28:00,69.0,0.0,29.96,South,184,9.0,15.0,21,-99.99,,,-99.99,,2013-03-25 20:28:00,
2013-03-25 13:36:00,70.0,0.0,29.95,SSW,200,8.0,14.0,20,-99.99,,,-99.99,,2013-03-25 20:36:00,
2013-03-25 13:44:00,70.0,0.0,29.95,SW,214,10.0,14.0,20,-99.99,,,-99.99,,2013-03-25 20:44:00,
2013-03-25 13:52:00,71.0,0.0,29.95,South,172,9.0,17.0,20,-99.99,,,-99.99,,2013-03-25 20:52:00,
2013-03-25 14:00:00,72.0,0.0,29.94,SSW,196,8.0,17.0,20,-99.99,,,-99.99,,2013-03-25 21:00:00,
2013-03-25 14:08:00,72.0,0.0,29.94,South,189,16.0,17.0,19,-99.99,,,-99.99,,2013-03-25 21:08:00,
2013-03-25 14:16:00,73.0,0.0,29.94,South,169,5.0,18.0,20,-99.99,,,-99.99,,2013-03-25 21:16:00,
2013-03-25 14:24:00,72.0,0.0,29.93,SSE,164,12.0,18.0,20,-99.99,,,-99.99,,2013-03-25 21:24:00,
2013-03-25 14:32:00,72.0,0.0,29.93,SSE,154,6.0,13.0,19,-99.99,,,-99.99,,2013-03-25 21:32:00,
2013-03-25 14:40:00,71.0,0.0,29.92,South,182,12.0,13.0,20,-99.99,,,-99.99,,2013-03-25 21:40:00,
2013-03-25 14:48:00,72.0,0.0,29.92,South,177,7.0,13.0,20,-99.99,,,-99.99,,2013-03-25 21:48:00,
2013-03-25 14:56:00,73.0,0.0,29.92,SSE,167,9.0,12.0,20,-99.99,,,-99.99,,2013-03-25 21:56:00,
2013-03-25 15:04:00,74.0,0.0,29.91,SE,135,7.0,13.0,19,-99.99,,,-99.99,,2013-03-25 22:04:00,
2013-03-25 15:12:00,73.0,0.0,29.92,South,174,5.0,13.0,19,-99.99,,,-99.99,,2013-03-25 22:12:00,
2013-03-25 15:20:00,75.0,0.0,29.91,SE,126,6.0,12.0,19,-99.99,,,-99.99,,2013-03-25 22:20:00,
2013-03-25 15:28:00,76.0,0.0,29.91,SSE,167,2.0,12.0,18,-99.99,,,-99.99,,2013-03-25 22:28:00,
2013-03-25 15:36:00,76.0,0.0,29.90,SE,128,6.0,10.0,17,-99.99,,,-99.99,,2013-03-25 22:36:00,
2013-03-25 15:44:00,77.0,0.0,29.90,SSE,151,6.0,12.0,18,-99.99,,,-99.99,,2013-03-25 22:44:00,
2013-03-25 15:52:00,77.0,0.0,29.89,SSE,149,6.0,13.0,18,-99.99,,,-99.99,,2013-03-25 22:52:00,
2013-03-25 16:00:00,78.0,0.0,29.89,South,170,3.0,10.0,17,-99.99,,,-99.99,,2013-03-25 23:00:00,
2013-03-25 16:08:00,77.0,0.0,29.89,SE,142,7.0,14.0,19,-99.99,,,-99.99,,2013-03-25 23:08:00,
2013-03-25 16:16:00,78.0,0.0,29.89,SE,128,8.0,16.0,17,-99.99,,,-99.99,,2013-03-25 23:16:00,
2013-03-25 17:04:00,77.0,0.0,29.87,SSE,149,3.0,14.0,16,-99.99,,,-99.99,,2013-03-26 00:04:00,
2013-03-25 17:12:00,77.0,0.0,29.87,SE,127,7.0,12.0,17,-99.99,,,-99.99,,2013-03-26 00:12:00,
2013-03-25 17:20:00,78.0,0.0,29.86,SE,143,5.0,10.0,16,-99.99,,,-99.99,,2013-03-26 00:20:00,
2013-03-25 17:28:00,77.0,0.0,29.86,South,173,7.0,9.0,16,-99.99,,,-99.99,,2013-03-26 00:28:00,
2013-03-25 17:36:00,76.0,0.0,29.85,SSE,154,7.0,13.0,16,-99.99,,,-99.99,,2013-03-26 00:36:00,
2013-03-25 17:44:00,77.0,0.0,29.85,SE,133,10.0,14.0,15,-99.99,,,-99.99,,2013-03-26 00:44:00,
2013-03-25 17:52:00,78.0,0.0,29.85,SSE,159,9.0,15.0,13,-99.99,,,-99.99,,2013-03-26 00:52:00,
2013-03-25 18:00:00,78.0,0.0,29.85,SE,137,13.0,15.0,15,-99.99,,,-99.99,,2013-03-26 01:00:00,
2013-03-25 18:08:00,78.0,0.0,29.84,SSW,198,15.0,16.0,13,-99.99,,,-99.99,,2013-03-26 01:08:00,
2013-03-25 18:16:00,77.0,0.0,29.84,WSW,245,13.0,21.0,14,-99.99,,,-99.99,,2013-03-26 01:16:00,
2013-03-25 18:24:00,76.0,0.0,29.84,WSW,238,9.0,20.0,13,-99.99,,,-99.99,,2013-03-26 01:24:00,
2013-03-25 18:32:00,75.0,0.0,29.84,SW,217,8.0,13.0,15,-99.99,,,-99.99,,2013-03-26 01:32:00,
2013-03-25 18:40:00,74.0,0.0,29.84,WSW,242,13.0,17.0,17,-99.99,,,-99.99,,2013-03-26 01:40:00,
2013-03-25 18:48:00,74.0,0.0,29.84,SW,233,13.0,18.0,17,-99.99,,,-99.99,,2013-03-26 01:48:00,
2013-03-25 18:56:00,73.0,0.0,29.84,SW,233,17.0,21.0,19,-99.99,,,-99.99,,2013-03-26 01:56:00,
2013-03-25 19:04:00,72.0,0.0,29.84,SW,233,16.0,22.0,22,-99.99,,,-99.99,,2013-03-26 02:04:00,
2013-03-25 19:12:00,72.0,0.0,29.85,WSW,243,20.0,22.0,19,-99.99,,,-99.99,,2013-03-26 02:12:00,
2013-03-25 19:20:00,71.0,0.0,29.84,WSW,250,14.0,21.0,20,-99.99,,,-99.99,,2013-03-26 02:20:00,
2013-03-25 19:28:00,70.0,0.0,29.84,WSW,245,14.0,17.0,20,-99.99,,,-99.99,,2013-03-26 02:28:00,
2013-03-25 19:36:00,70.0,0.0,29.85,WSW,250,14.0,18.0,21,-99.99,,,-99.99,,2013-03-26 02:36:00,
2013-03-25 19:44:00,70.0,0.0,29.85,West,259,13.0,18.0,19,-99.99,,,-99.99,,2013-03-26 02:44:00,
2013-03-25 19:52:00,69.0,0.0,29.85,WSW,253,14.0,18.0,19,-99.99,,,-99.99,,2013-03-26 02:52:00,
2013-03-25 20:00:00,69.0,0.0,29.85,SW,227,14.0,17.0,21,-99.99,,,-99.99,,2013-03-26 03:00:00,
2013-03-25 20:08:00,69.0,0.0,29.85,SW,231,12.0,16.0,19,-99.99,,,-99.99,,2013-03-26 03:08:00,
2013-03-25 20:16:00,69.0,0.0,29.86,SW,227,12.0,16.0,19,-99.99,,,-99.99,,2013-03-26 03:16:00,
2013-03-25 20:24:00,68.0,0.0,29.86,SSW,199,13.0,16.0,21,-99.99,,,-99.99,,2013-03-26 03:24:00,
2013-03-25 20:32:00,68.0,0.0,29.86,SSW,213,12.0,14.0,21,-99.99,,,-99.99,,2013-03-26 03:32:00,
2013-03-25 20:40:00,67.0,0.0,29.86,SW,219,7.0,14.0,20,-99.99,,,-99.99,,2013-03-26 03:40:00,
2013-03-25 20:48:00,66.0,0.0,29.86,WSW,255,7.0,13.0,24,-99.99,,,-99.99,,2013-03-26 03:48:00,
2013-03-25 20:56:00,66.0,0.0,29.87,West,260,9.0,10.0,16,-99.99,,,-99.99,,2013-03-26 03:56:00,
2013-03-25 21:00:00,67.0,0.0,29.87,WSW,251,8.0,12.0,17,-99.99,,,-99.99,,2013-03-26 04:00:00,
2013-03-25 21:04:00,67.0,0.0,29.87,West,267,9.0,12.0,16,-99.99,,,-99.99,,2013-03-26 04:04:00,
2013-03-25 21:08:00,67.0,0.0,29.87,West,274,8.0,10.0,15,-99.99,,,-99.99,,2013-03-26 04:08:00,
2013-03-25 21:16:00,67.0,0.0,29.87,West,270,12.0,13.0,15,-99.99,,,-99.99,,2013-03-26 04:16:00,
2013-03-25 21:24:00,67.0,0.0,29.88,West,280,13.0,14.0,15,-99.99,,,-99.99,,2013-03-26 04:24:00,
2013-03-25 21:28:00,67.0,0.0,29.88,West,279,7.0,14.0,14,-99.99,,,-99.99,,2013-03-26 04:28:00,
2013-03-25 21:36:00,67.0,0.0,29.88,WNW,282,9.0,13.0,14,-99.99,,,-99.99,,2013-03-26 04:36:00,
2013-03-25 21:44:00,67.0,0.0,29.88,WNW,282,10.0,12.0,14,-99.99,,,-99.99,,2013-03-26 04:44:00,
2013-03-25 21:52:00,66.0,0.0,29.88,West,279,7.0,12.0,14,-99.99,,,-99.99,,2013-03-26 04:52:00,
2013-03-25 22:00:00,66.0,0.0,29.89,West,274,6.0,9.0,14,-99.99,,,-99.99,,2013-03-26 05:00:00,
2013-03-25 22:08:00,65.0,0.0,29.89,SSW,208,6.0,9.0,15,-99.99,,,-99.99,,2013-03-26 05:08:00,
2013-03-25 22:16:00,65.0,0.0,29.89,SSW,207,7.0,9.0,16,-99.99,,,-99.99,,2013-03-26 05:16:00,
2013-03-25 22:24:00,66.0,0.0,29.89,SSE,163,7.0,9.0,14,-99.99,,,-99.99,,2013-03-26 05:24:00,
2013-03-25 22:32:00,64.0,0.0,29.89,South,187,8.0,13.0,18,-99.99,,,-99.99,,2013-03-26 05:32:00,
2013-03-25 22:40:00,63.0,0.0,29.89,South,187,10.0,13.0,19,-99.99,,,-99.99,,2013-03-26 05:40:00,
2013-03-25 22:48:00,64.0,0.0,29.89,South,183,10.0,15.0,17,-99.99,,,-99.99,,2013-03-26 05:48:00,
2013-03-25 22:56:00,64.0,0.0,29.89,SSE,159,9.0,14.0,17,-99.99,,,-99.99,,2013-03-26 05:56:00,
2013-03-25 23:04:00,62.0,0.0,29.89,SSE,160,9.0,13.0,21,-99.99,,,-99.99,,2013-03-26 06:04:00,
2013-03-25 23:12:00,63.0,0.0,29.89,South,185,12.0,13.0,19,-99.99,,,-99.99,,2013-03-26 06:12:00,
2013-03-25 23:20:00,63.0,0.0,29.89,South,181,12.0,14.0,19,-99.99,,,-99.99,,2013-03-26 06:20:00,
2013-03-25 23:28:00,63.0,0.0,29.88,South,171,10.0,13.0,19,-99.99,,,-99.99,,2013-03-26 06:28:00,
2013-03-25 23:36:00,62.0,0.0,29.89,South,174,8.0,13.0,19,-99.99,,,-99.99,,2013-03-26 06:36:00,
2013-03-25 23:44:00,62.0,0.0,29.88,South,176,7.0,13.0,18,-99.99,,,-99.99,,2013-03-26 06:44:00,
2013-03-25 23:52:00,61.0,0.0,29.89,South,172,8.0,12.0,20,-99.99,,,-99.99,,2013-03-26 06:52:00,